| time (UTC) | temp C | wind direction | speed KPH | gust KPH | rain 1hr cm | rain 24hr cm | rain mn cm | humidity % | barometer mb |
| 20260505164531 | 22 | 344 | 20.9 | 40.2 | 0.00 | 0.15 | 0.00 | 56 | 946.7 |
| 20260505163029 | 22 | 336 | 11.3 | 25.7 | 0.00 | 0.15 | 0.00 | 57 | 947.2 |
| 20260505153036 | 21 | 346 | 12.9 | 33.8 | 0.00 | 0.15 | 0.00 | 54 | 947.4 |
| 20260505124515 | 15 | 263 | 14.5 | 20.9 | 0.15 | 0.15 | 0.00 | 76 | 948.2 |
| 20260505123011 | 14 | 244 | 16.1 | 24.1 | 0.15 | 0.15 | 0.00 | 76 | 948.3 |
| 20260505121608 | 13 | 232 | 14.5 | 24.1 | 0.15 | 0.15 | 0.00 | 79 | 948.0 |
| 20260505120044 | 13 | 223 | 11.3 | 20.9 | 0.15 | 0.15 | 0.00 | 79 | 948.0 |
| 20260505114542 | 14 | 268 | 8.0 | 25.7 | 0.00 | 0.00 | 0.00 | 74 | 948.4 |
| 20260505113041 | 15 | 254 | 12.9 | 20.9 | 0.00 | 0.00 | 0.00 | 71 | 948.2 |
| 20260505111641 | 14 | 274 | 11.3 | 19.3 | 0.00 | 0.00 | 0.00 | 71 | 948.3 |
| 20260505101635 | 13 | 262 | 11.3 | 20.9 | 0.00 | 0.00 | 0.00 | 70 | 947.8 |
| 20260505100034 | 13 | 231 | 12.9 | 20.9 | 0.00 | 0.00 | 0.00 | 70 | 947.5 |
| 20260505094533 | 13 | 257 | 14.5 | 24.1 | 0.00 | 0.00 | 0.00 | 70 | 947.2 |
| 20260505093037 | 13 | 269 | 11.3 | 17.7 | 0.00 | 0.00 | 0.00 | 69 | 947.3 |
| 20260505091633 | 13 | 233 | 9.7 | 22.5 | 0.00 | 0.00 | 0.00 | 68 | 947.2 |
| 20260505090033 | 13 | 244 | 12.9 | 17.7 | 0.00 | 0.00 | 0.00 | 68 | 947.1 |
| 20260505084533 | 13 | 254 | 12.9 | 22.5 | 0.00 | 0.00 | 0.00 | 67 | 947.1 |
| 20260505083033 | 13 | 249 | 12.9 | 19.3 | 0.00 | 0.00 | 0.00 | 67 | 946.9 |
| 20260505081631 | 14 | 266 | 9.7 | 20.9 | 0.00 | 0.00 | 0.00 | 66 | 947.0 |
| 20260505080034 | 14 | 249 | 12.9 | 22.5 | 0.00 | 0.00 | 0.00 | 66 | 947.1 |
| 20260505074533 | 14 | 248 | 9.7 | 24.1 | 0.00 | 0.00 | 0.00 | 65 | 947.2 |
| 20260505073034 | 14 | 265 | 11.3 | 22.5 | 0.00 | 0.00 | 0.00 | 65 | 947.2 |
| 20260505071536 | 13 | 267 | 14.5 | 24.1 | 0.00 | 0.00 | 0.00 | 64 | 947.3 |
| 20260505070034 | 13 | 261 | 12.9 | 22.5 | 0.00 | 0.00 | 0.00 | 64 | 947.3 |
| 20260505064527 | 13 | 254 | 11.3 | 20.9 | 0.00 | 0.00 | 0.00 | 65 | 947.4 |
| 20260505063027 | 13 | 255 | 12.9 | 24.1 | 0.00 | 0.00 | 0.00 | 63 | 947.3 |
| 20260505060026 | 13 | 265 | 16.1 | 24.1 | 0.00 | 0.00 | 0.00 | 62 | 947.3 |
| 20260505054526 | 13 | 227 | 14.5 | 29.0 | 0.00 | 0.00 | 0.00 | 62 | 947.4 |
| 20260505053033 | 13 | 246 | 12.9 | 22.5 | 0.00 | 0.00 | 0.00 | 62 | 947.4 |
| 20260505051627 | 13 | 240 | 11.3 | 29.0 | 0.00 | 0.00 | 0.00 | 62 | 947.5 |
| 20260505041626 | 14 | 225 | 16.1 | 25.7 | 0.00 | 0.00 | 0.00 | 59 | 947.5 |
| 20260505040026 | 14 | 235 | 12.9 | 25.7 | 0.00 | 0.00 | 0.00 | 59 | 947.4 |
| 20260505034524 | 15 | 244 | 11.3 | 24.1 | 0.00 | 0.00 | 0.00 | 58 | 947.3 |
| 20260505033025 | 15 | 240 | 14.5 | 30.6 | 0.00 | 0.00 | 0.00 | 57 | 947.2 |
| 20260505031624 | 15 | 265 | 16.1 | 33.8 | 0.00 | 0.00 | 0.00 | 56 | 947.2 |
| 20260505030022 | 15 | 264 | 14.5 | 30.6 | 0.00 | 0.00 | 0.00 | 56 | 947.3 |
| 20260505024521 | 16 | 254 | 17.7 | 38.6 | 0.00 | 0.00 | 0.00 | 55 | 947.3 |
| 20260505023021 | 16 | 257 | 19.3 | 32.2 | 0.00 | 0.00 | 0.00 | 54 | 947.4 |
| 20260505021621 | 16 | 229 | 14.5 | 30.6 | 0.00 | 0.00 | 0.00 | 53 | 947.5 |
| 20260505020020 | 16 | 221 | 14.5 | 27.4 | 0.00 | 0.00 | 0.00 | 52 | 947.5 |
| 20260505014520 | 16 | 247 | 16.1 | 25.7 | 0.00 | 0.00 | 0.00 | 51 | 947.4 |
| 20260505013019 | 16 | 254 | 16.1 | 32.2 | 0.00 | 0.00 | 0.00 | 51 | 947.3 |
| 20260505011620 | 16 | 262 | 17.7 | 29.0 | 0.00 | 0.00 | 0.00 | 50 | 947.2 |
| 20260505010019 | 16 | 265 | 14.5 | 32.2 | 0.00 | 0.00 | 0.00 | 49 | 947.1 |
| 20260505004520 | 17 | 273 | 16.1 | 29.0 | 0.00 | 0.00 | 0.00 | 49 | 947.0 |
| 20260505003021 | 17 | 252 | 14.5 | 30.6 | 0.00 | 0.00 | 0.00 | 49 | 946.8 |
| 20260505001618 | 17 | 257 | 17.7 | 29.0 | 0.00 | 0.00 | 0.00 | 47 | 947.0 |
| 20260505000017 | 17 | 263 | 14.5 | 32.2 | 0.00 | 0.00 | 0.00 | 47 | 946.8 |
| 20260504234521 | 17 | 250 | 11.3 | 29.0 | 0.00 | 0.00 | 0.00 | 47 | 946.7 |
| 20260504233014 | 17 | 251 | 14.5 | 25.7 | 0.00 | 0.00 | 0.00 | 47 | 946.5 |
| 20260504231613 | 18 | 254 | 12.9 | 22.5 | 0.00 | 0.00 | 0.00 | 45 | 946.6 |
| 20260504230015 | 18 | 263 | 8.0 | 25.7 | 0.00 | 0.00 | 0.00 | 46 | 946.6 |
| 20260504224514 | 18 | 244 | 17.7 | 29.0 | 0.00 | 0.00 | 0.00 | 44 | 946.4 |
| 20260504223014 | 18 | 254 | 12.9 | 19.3 | 0.00 | 0.00 | 0.00 | 44 | 946.4 |
| 20260504221612 | 19 | 286 | 11.3 | 22.5 | 0.00 | 0.00 | 0.00 | 44 | 946.4 |
| 20260504220012 | 19 | 250 | 12.9 | 25.7 | 0.00 | 0.00 | 0.00 | 44 | 946.3 |
| 20260504214510 | 19 | 260 | 9.7 | 19.3 | 0.00 | 0.00 | 0.00 | 47 | 946.5 |
| 20260504213013 | 19 | 268 | 12.9 | 29.0 | 0.00 | 0.00 | 0.00 | 42 | 946.5 |
| 20260504211509 | 19 | 264 | 14.5 | 32.2 | 0.00 | 0.00 | 0.00 | 45 | 946.5 |
| 20260504210008 | 19 | 292 | 11.3 | 24.1 | 0.00 | 0.00 | 0.00 | 43 | 946.7 |
| 20260504204506 | 20 | 273 | 9.7 | 19.3 | 0.00 | 0.00 | 0.00 | 44 | 946.8 |
| 20260504203005 | 20 | 299 | 8.0 | 29.0 | 0.00 | 0.00 | 0.00 | 46 | 946.9 |
| 20260504201603 | 19 | 279 | 8.0 | 27.4 | 0.00 | 0.00 | 0.00 | 45 | 947.1 |
| 20260504200003 | 19 | 261 | 9.7 | 20.9 | 0.00 | 0.00 | 0.00 | 46 | 947.3 |
| 20260504194501 | 18 | 300 | 6.4 | 32.2 | 0.00 | 0.00 | 0.00 | 49 | 947.4 |
| 20260504193002 | 18 | 256 | 16.1 | 32.2 | 0.00 | 0.00 | 0.00 | 48 | 947.6 |
| 20260504191559 | 18 | 269 | 9.7 | 25.7 | 0.00 | 0.00 | 0.00 | 44 | 947.5 |
| 20260504190128 | 18 | 360 | 11.3 | 22.5 | 0.00 | 0.00 | 0.00 | 47 | 947.7 |
| 20260504184555 | 17 | 265 | 11.3 | 29.0 | 0.00 | 0.00 | 0.00 | 49 | 947.7 |
| 20260504183054 | 17 | 297 | 8.0 | 22.5 | 0.00 | 0.00 | 0.00 | 46 | 947.9 |
| 20260504181555 | 18 | 325 | 6.4 | 22.5 | 0.00 | 0.00 | 0.00 | 46 | 947.9 |
| 20260504180007 | 18 | 307 | 9.7 | 25.7 | 0.00 | 0.00 | 0.00 | 48 | 948.2 |
| 20260504174505 | 17 | 275 | 4.8 | 29.0 | 0.00 | 0.00 | 0.00 | 50 | 948.2 |
| 20260504173004 | 17 | 15 | 8.0 | 25.7 | 0.00 | 0.00 | 0.00 | 47 | 948.2 |
| 20260504171605 | 17 | 332 | 12.9 | 29.0 | 0.00 | 0.00 | 0.00 | 50 | 948.3 |